Starlink 1230

operational
NORAD ID: 45189 Int'l Des: 2020-012 Owner: SPXS Country: US Constellation: starlink
LEOCIRCULARSTARLINK_TYPE

About Starlink 1230

Description loading...

Live Position

Loading 3D Globe...

Upcoming Passes

Altitude History

Altitude vs Time

uPlot chart will show altitude changes over time

Two-Line Element Set

1 45189U 20012M 25304.14601530 .00003610 00000-0 26105-3 0 9993
2 45189 53.0555 268.1659 0001582 95.6723 264.4447 15.06413993312533
Epoch: Oct 31, 2025 • Age: 16 hours

Current Status

Altitude 552.5 km
Velocity 7.59 km/s
Sub-Earth Point 52.84°N, 26.31°E
Launch Date Feb 17, 2020
Age 5.7 years
Type internet

Technical Details

Classification Payload
Mass 260.00 kg
Dry Mass 248.00 kg
Total Mass 260.00 kg
Length 0.20 m
Diameter 2.80 m
Span 9.00 m
Shape Box + pan
Manufacturer SPXS
Bus Type Starlink
Phase Status In Orbit
Owner/State SPXS/US

Large Constellations

Loading constellations...